Theta_e
308 309 308 308 308 309 309 309 309 309 309 309 309 309 310 310 310 310 310 310 310 310 310 310 310 310 310 311 310 311 312 311 312 317 321 321 319 318 316 313 313 313 313 315 316 316 316 316 316 316 318 320 321 324 323 322 324 323 325 324 323 323 322 321 321 320 319 317 317 316 317 316 316 317 317 318 317 317 317 317 317 317 317 317 317 318 320 319
309 309 309 309 309 309 309 309 309 309 309 309 310 310 310 310 310 310 311 311 310 311 311 311 311 311 311 310 310 311 311 311 315 320 321 320 320 318 315 314 314 313 313 316 317 316 316 317 317 317 319 322 323 324 324 323 323 323 325 324 323 323 323 321 320 319 320 318 317 316 316 317 316 317 317 317 317 316 317 316 316 317 317 318 317 318 320 319
309 309 310 310 310 309 309 310 310 310 310 311 311 311 311 311 311 312 312 312 312 312 312 313 312 312 313 311 312 310 311 318 322 322 321 319 318 315 314 315 315 314 313 316 317 316 316 316 317 317 318 320 322 323 324 324 323 323 324 323 322 322 321 320 318 319 319 318 318 317 316 316 316 316 316 317 317 317 317 317 316 316 317 318 317 318 320 319
309 310 311 310 310 310 310 311 311 311 311 312 312 312 313 313 313 313 313 313 314 314 314 314 314 314 314 313 313 309 316 326 325 318 316 315 315 314 315 315 315 314 314 317 317 317 317 316 316 317 317 318 320 322 323 323 323 322 322 322 321 321 319 318 317 317 318 319 318 318 317 316 316 316 317 318 318 317 317 316 317 317 316 317 317 316 317 318
310 311 311 311 311 311 312 312 312 313 313 313 314 313 313 314 314 314 314 314 314 314 314 313 313 314 313 314 313 312 321 325 318 316 315 314 315 315 315 315 315 314 315 317 316 316 316 315 316 317 317 317 319 320 321 321 321 322 321 321 321 320 318 317 317 319 319 319 318 318 317 316 316 316 317 318 318 317 316 317 317 317 317 317 317 317 316 318
311 312 312 312 312 312 313 313 314 314 314 314 314 313 313 313 313 313 313 313 312 312 312 312 311 312 312 314 313 316 322 317 316 320 315 314 316 315 315 315 315 314 316 317 316 316 316 315 315 317 317 317 317 317 317 319 320 322 320 320 320 318 317 316 317 320 319 318 318 318 317 316 316 316 316 317 317 317 317 317 317 317 317 317 317 318 318 319
312 313 313 313 313 313 314 314 315 314 314 314 313 314 313 313 313 313 313 312 312 312 312 312 311 311 311 313 316 320 320 315 319 322 316 316 316 315 315 315 315 314 316 316 315 316 315 315 315 316 317 316 317 316 316 317 318 321 321 320 318 317 316 316 317 319 319 318 318 317 317 317 316 316 316 316 316 316 317 316 317 316 316 317 318 318 319 319
313 313 314 314 315 314 315 315 314 314 314 314 314 315 314 315 314 314 314 314 315 314 314 313 312 311 310 315 322 322 319 317 319 321 319 316 314 315 315 315 315 314 316 316 316 316 316 316 315 315 316 315 316 316 316 317 317 319 320 319 318 317 317 317 318 318 319 318 317 318 318 317 316 316 316 316 316 316 316 316 316 316 316 317 318 318 319 320
314 314 315 315 315 315 315 315 315 316 316 316 316 316 316 317 317 317 318 317 318 317 317 315 313 311 309 315 321 320 320 321 319 319 317 314 314 314 315 316 315 315 316 316 316 316 316 316 316 316 316 316 316 316 316 316 317 317 317 317 316 316 317 317 316 316 316 316 317 318 318 317 317 316 316 316 316 316 316 316 316 316 317 317 317 317 317 318
315 315 316 316 316 316 317 317 318 319 319 319 318 318 319 320 320 320 320 320 320 319 318 315 313 311 311 316 318 318 323 322 318 317 315 313 314 313 315 318 316 315 317 316 317 316 316 317 317 318 317 316 315 315 316 316 316 316 316 316 315 315 315 315 315 314 315 315 315 316 317 317 316 316 316 315 316 317 317 316 317 316 317 317 316 316 316 317
316 316 317 317 318 318 319 320 321 321 321 321 320 321 321 321 321 321 321 321 320 319 316 315 313 311 315 319 316 317 321 319 316 315 314 314 315 315 316 319 318 317 317 317 317 316 316 317 317 318 316 315 314 315 315 315 316 316 315 314 314 314 314 314 314 314 314 314 315 316 315 316 315 316 315 315 315 316 316 316 316 316 317 317 317 316 318 317
316 317 317 318 319 320 321 321 322 322 322 321 321 321 321 322 322 321 321 320 318 318 315 314 312 310 318 320 315 317 318 317 316 314 315 316 316 317 317 318 318 317 317 318 317 318 318 318 318 316 315 315 314 315 314 313 315 315 314 314 314 314 314 314 314 315 315 315 317 315 315 316 315 315 315 315 315 315 316 316 316 317 316 317 317 316 318 317
316 317 319 320 321 321 322 322 322 322 321 321 321 321 322 321 321 321 320 318 317 316 314 315 311 311 319 320 316 318 318 317 316 314 315 316 316 317 317 318 317 317 318 317 317 317 318 317 316 316 315 315 314 315 314 313 314 314 314 313 314 314 315 315 316 316 315 315 316 315 315 316 315 316 316 316 316 316 316 316 316 316 316 315 316 317 318 318
316 318 319 320 321 322 322 322 322 321 321 320 320 321 321 321 321 319 317 316 316 315 314 313 311 314 319 319 316 317 317 316 315 315 316 315 317 317 316 317 316 316 316 316 316 315 315 315 315 315 315 315 315 315 314 314 314 314 314 315 316 316 316 317 317 317 316 315 314 314 314 315 315 317 318 318 318 316 316 316 316 315 315 315 316 317 318 318
317 318 319 320 322 322 322 322 321 321 321 320 320 320 321 321 320 317 316 315 314 313 313 311 312 318 320 317 316 315 314 314 315 317 317 316 318 317 315 316 316 316 315 315 315 314 314 314 314 315 314 315 315 314 314 314 314 314 315 316 318 317 316 318 318 318 316 314 313 314 315 315 315 317 318 318 317 316 316 316 315 315 315 315 316 317 319 320
317 318 319 321 322 322 322 322 321 321 321 320 320 320 320 320 318 316 314 313 313 311 315 317 315 317 319 316 317 314 314 316 316 317 316 315 317 317 316 315 314 314 314 313 313 313 313 313 314 314 314 314 314 315 315 316 316 316 316 316 318 318 317 318 319 318 317 315 313 314 316 316 316 317 318 317 316 316 315 315 315 315 315 315 316 317 319 321
317 318 320 321 321 321 322 322 322 321 321 320 320 320 320 319 317 315 313 312 311 310 316 321 315 314 316 316 317 316 316 316 316 316 313 313 316 316 315 314 314 314 313 313 312 312 312 313 315 315 314 314 314 315 318 319 318 319 319 318 319 319 317 318 320 319 319 317 315 314 314 314 315 316 316 315 316 316 315 315 315 315 315 315 317 318 318 318
317 318 320 321 321 321 322 322 321 321 320 319 320 320 319 318 316 315 314 313 313 312 315 315 313 318 319 316 316 316 316 315 315 315 313 312 314 315 315 314 314 314 313 313 312 312 313 313 315 315 315 314 313 315 318 320 319 319 320 319 319 319 318 318 318 320 320 318 318 316 315 315 316 316 316 316 316 316 316 316 316 316 316 316 318 319 318 316
317 319 321 321 321 321 322 322 322 321 320 319 320 320 320 318 316 315 316 317 317 320 322 316 315 321 321 319 318 316 315 314 313 314 313 312 313 314 314 314 315 314 314 315 315 313 314 315 317 318 318 316 315 315 316 318 318 318 319 319 318 318 318 318 319 319 320 319 319 319 318 317 317 317 316 317 316 316 316 316 316 317 316 317 319 319 317 315
319 320 320 320 320 321 321 322 322 322 320 320 320 322 323 322 322 320 316 317 318 320 322 318 317 319 320 321 319 315 315 314 313 315 314 313 313 314 314 314 316 315 315 318 317 314 314 317 319 319 318 317 317 317 317 318 318 318 319 319 319 319 318 319 319 319 319 319 319 319 319 318 317 317 316 316 316 316 316 316 317 316 317 319 319 318 315 313
320 321 321 320 320 320 321 322 323 322 320 321 321 323 322 319 321 321 316 317 319 319 320 320 320 320 321 321 317 315 316 315 314 315 314 313 313 314 314 314 316 317 316 318 318 315 316 319 320 319 317 317 318 318 319 319 319 319 319 320 320 320 319 318 319 319 319 318 318 318 318 317 317 316 316 316 316 316 316 317 316 317 319 319 317 315 313 312
320 321 322 321 320 319 320 322 322 321 320 322 322 321 318 314 314 314 314 318 319 318 320 321 321 321 321 321 316 314 317 317 316 316 314 313 314 315 315 315 316 318 318 318 319 318 320 320 319 318 318 318 318 319 319 319 321 321 320 321 321 320 319 319 319 318 317 317 318 318 317 317 317 316 316 316 316 316 317 318 318 318 318 317 314 313 312 311
322 323 323 322 321 319 321 321 321 322 321 321 321 319 316 313 311 311 312 316 317 318 319 319 320 320 321 321 316 314 317 317 318 317 313 313 314 315 316 316 316 319 319 319 320 322 322 320 318 318 318 319 318 319 320 320 320 322 321 321 321 321 321 321 320 318 317 317 318 318 318 317 316 316 316 317 317 317 319 318 317 317 315 313 312 311 311 309
323 322 323 322 321 321 320 320 322 323 322 320 319 317 315 313 311 311 313 316 318 319 319 318 318 319 319 317 314 314 316 317 318 317 313 314 315 315 316 316 316 318 319 318 319 321 322 320 319 319 319 320 320 321 322 321 321 322 323 322 321 321 321 321 320 319 317 318 319 319 320 320 319 319 319 319 319 318 318 316 314 314 313 312 311 310 309 308
322 322 323 323 322 322 320 320 322 323 322 320 318 317 316 313 311 311 315 319 321 320 318 318 318 317 314 312 313 313 314 316 316 315 313 314 315 316 316 317 317 319 320 319 319 320 320 320 321 321 320 321 322 322 322 323 322 322 324 324 322 321 322 323 322 321 320 320 322 321 323 324 321 321 321 320 321 318 316 314 312 312 312 311 310 309 309 308
321 322 323 323 323 322 320 322 323 322 322 320 318 318 317 315 312 311 315 320 324 323 320 319 318 316 313 312 313 313 316 316 312 313 314 313 313 313 315 317 318 318 319 319 320 321 319 319 321 322 322 323 324 322 321 322 321 322 324 325 324 322 323 323 322 323 322 321 320 319 322 323 320 320 321 321 321 318 314 313 312 311 310 310 309 308 307 306
320 322 323 323 323 322 321 323 323 323 322 320 319 318 318 316 312 312 318 324 327 324 319 316 316 315 312 312 312 314 318 316 311 311 313 312 312 312 315 317 317 317 315 317 322 322 319 320 322 321 321 324 324 322 322 322 322 323 324 324 323 321 322 322 320 322 322 320 319 318 320 322 321 321 320 321 321 315 312 312 311 310 310 309 307 307 306 305
320 321 323 323 322 321 321 322 322 323 322 320 319 319 318 315 312 314 322 329 330 322 317 314 312 312 311 311 311 313 313 312 313 313 310 311 312 312 315 316 316 317 314 317 323 322 318 322 324 322 322 323 322 321 323 323 323 323 321 319 319 318 318 319 319 321 320 319 321 322 321 324 325 322 320 321 319 314 312 312 311 310 309 307 307 306 305 304
321 322 321 321 321 321 321 321 321 322 321 319 319 320 317 314 314 317 323 328 327 318 316 313 311 312 312 311 312 312 309 309 313 312 310 311 311 311 313 313 313 315 315 317 321 321 319 319 320 322 322 321 320 321 325 325 322 321 319 318 318 319 319 319 320 320 319 320 321 323 323 325 327 325 322 322 318 313 313 311 310 309 307 306 306 305 304 304
321 320 320 320 320 321 320 320 320 321 320 320 320 319 315 316 320 324 326 327 321 317 315 313 314 315 312 312 313 312 310 311 311 311 311 312 312 310 311 311 310 314 316 317 319 319 316 313 314 319 320 318 319 321 323 325 322 318 318 319 319 321 321 320 320 318 320 324 324 323 322 323 328 328 320 320 317 313 312 311 309 307 306 305 305 304 303 302
320 319 319 320 320 320 320 321 320 319 320 320 319 317 318 322 325 327 329 324 318 319 316 315 316 314 314 316 316 313 312 312 311 312 313 312 312 312 312 313 313 316 318 319 320 319 317 315 315 318 318 316 319 320 319 319 318 317 317 317 319 323 322 319 320 319 321 327 327 325 323 322 327 328 317 315 315 313 312 310 308 306 305 305 304 303 302 302
319 318 319 320 320 320 320 321 319 319 320 317 317 321 325 326 325 326 326 321 322 324 320 319 318 315 317 319 319 317 316 315 312 313 315 315 315 314 314 317 317 319 321 321 322 322 322 321 318 318 317 316 318 319 318 317 316 316 316 316 320 325 323 323 325 324 325 327 325 325 326 324 326 324 316 313 312 312 311 309 307 306 304 304 303 303 302 301
318 317 318 319 319 319 319 319 318 318 318 315 319 326 326 324 325 325 324 323 327 325 321 321 320 319 319 319 321 321 321 320 314 313 317 318 319 319 318 318 318 321 321 320 321 322 323 324 321 319 318 317 318 319 320 322 318 315 317 320 323 324 321 321 323 323 323 323 322 322 322 324 325 320 313 310 308 308 307 307 306 305 304 303 302 302 301 301
316 315 316 317 318 318 318 318 317 317 316 317 323 326 323 323 325 324 323 324 324 321 321 322 320 320 320 319 321 321 321 322 318 317 319 320 320 321 320 320 321 322 320 321 322 320 321 322 321 322 321 318 318 318 321 324 319 316 318 323 325 322 319 318 318 320 321 322 322 320 321 325 325 317 311 308 307 306 305 304 304 304 303 303 302 302 301 300
312 312 313 314 315 317 318 318 318 317 318 321 324 324 323 323 323 323 323 323 322 321 321 321 321 321 321 320 320 320 320 321 320 320 320 319 319 319 318 318 320 322 322 322 322 319 319 319 321 322 319 316 318 318 319 321 320 319 319 322 324 323 320 320 321 321 322 324 323 322 324 325 319 312 309 307 306 305 304 304 303 303 303 302 302 301 300 299
309 310 310 311 311 314 317 318 318 317 319 322 323 323 323 322 321 322 322 320 321 322 321 321 322 321 321 321 320 320 320 319 320 321 320 318 318 318 317 316 318 321 322 321 319 317 317 319 322 322 317 316 318 319 318 319 320 320 321 323 323 321 321 322 324 322 321 323 322 319 322 321 316 312 308 307 306 305 305 304 303 303 303 302 302 301 300 299
307 307 308 308 309 311 314 316 317 317 319 321 322 322 322 320 320 320 321 319 319 320 320 321 322 321 321 321 320 320 320 320 320 320 319 318 317 318 317 316 318 321 320 319 319 319 320 320 321 322 321 318 316 317 317 317 319 321 322 321 318 320 322 321 321 321 321 321 319 316 318 317 316 316 310 307 307 306 305 304 304 303 303 302 301 301 300 299
304 305 306 307 308 309 311 313 315 317 318 320 321 321 321 320 318 318 321 320 318 319 319 320 321 320 320 320 319 318 320 320 320 319 319 317 317 318 316 317 319 317 316 317 318 319 320 320 320 321 324 320 313 315 318 317 318 319 319 317 316 320 323 320 319 321 322 321 319 318 318 317 316 317 312 309 307 306 305 305 304 303 303 302 301 300 299 299
304 307 310 308 307 307 308 311 314 316 318 319 319 318 318 318 317 317 319 318 317 318 318 319 319 319 319 319 318 317 319 320 319 319 319 317 316 318 316 318 319 314 313 316 317 318 319 320 321 320 322 320 315 316 319 318 317 315 315 317 317 318 320 319 319 321 322 321 320 320 319 318 318 315 312 309 307 307 306 305 304 304 303 302 301 300 299 298
305 310 311 308 305 305 306 310 314 315 316 316 317 317 317 317 317 317 317 317 317 318 318 319 319 319 319 319 318 317 318 319 319 317 317 315 315 317 318 319 319 315 314 314 316 317 317 318 320 319 318 319 318 319 319 318 318 316 315 316 317 317 319 319 318 319 320 319 320 319 318 318 316 312 310 309 308 308 308 306 305 303 302 300 300 299 298 296
305 309 310 307 304 304 307 311 314 314 313 314 314 315 315 316 317 317 316 317 316 316 316 317 318 318 319 318 317 316 316 317 316 315 316 314 312 316 316 315 317 316 315 316 316 316 316 317 318 318 317 317 318 318 318 317 317 317 316 316 316 317 319 319 318 317 317 317 318 318 318 318 314 309 309 309 309 309 308 306 305 303 301 299 298 297 296 295
304 307 309 306 303 305 309 311 312 312 313 313 313 313 314 315 315 316 316 317 317 316 316 316 316 317 317 317 317 316 316 316 316 315 316 315 314 316 314 312 315 315 315 318 318 315 315 316 316 317 316 315 315 316 318 318 316 316 316 316 316 316 316 317 317 317 317 317 318 318 318 318 314 308 307 308 307 307 307 306 305 302 300 299 297 296 295 294
304 306 307 305 304 307 310 310 310 311 311 311 311 312 314 314 315 315 316 316 316 316 316 316 316 315 316 317 316 316 316 316 318 317 317 318 317 314 311 311 313 313 315 318 318 316 315 316 316 316 315 313 313 316 318 317 316 315 316 316 316 315 314 314 315 315 316 316 316 317 316 318 315 308 306 306 306 305 304 304 303 301 299 299 297 296 295 295
303 305 307 306 305 308 309 309 310 311 310 310 311 312 313 314 315 315 315 315 315 315 315 316 316 315 315 315 315 315 316 316 317 317 318 320 316 310 310 312 312 312 314 317 318 317 316 316 316 316 316 315 315 318 318 317 316 316 315 314 313 313 313 313 314 314 314 314 315 315 315 317 316 310 306 305 304 303 302 301 301 300 300 299 297 297 297 296
303 304 306 306 306 308 309 309 309 310 311 311 311 311 312 312 314 314 314 314 314 315 315 315 316 315 315 316 316 316 316 316 316 317 318 319 315 310 310 312 311 311 313 314 316 316 314 314 315 315 317 317 316 317 317 315 315 314 314 314 314 313 313 314 314 314 314 314 314 313 313 314 315 311 308 307 305 303 301 300 300 300 300 299 298 298 297 296
303 304 305 305 305 307 309 309 309 310 311 311 311 311 311 311 312 313 314 314 313 314 314 314 315 316 315 316 316 316 316 316 315 315 317 317 315 311 309 309 309 310 310 311 313 313 312 312 313 313 314 314 314 313 312 312 311 311 312 313 312 312 312 312 312 312 312 311 310 310 310 310 309 308 307 307 306 304 302 300 300 300 299 299 298 298 297 296
302 303 304 306 306 307 308 308 308 309 310 311 311 310 311 311 310 312 314 314 313 313 314 313 314 315 314 315 315 314 314 314 314 314 314 315 313 309 307 307 307 307 307 309 310 312 311 310 311 311 311 311 311 310 309 310 309 309 309 309 308 309 309 309 310 309 309 309 307 306 307 307 306 305 304 304 304 304 302 299 299 299 299 298 297 297 296 296
300 301 302 303 305 307 308 308 308 308 309 310 310 310 310 310 309 310 313 313 313 313 313 312 313 313 313 313 314 313 313 313 313 313 313 314 313 309 307 307 305 305 307 307 308 309 310 309 309 309 309 309 309 309 308 308 307 306 306 306 306 306 306 306 306 306 307 308 306 305 305 306 304 303 303 303 303 302 299 298 297 297 296 296 295 295 295 295
299 299 299 299 302 305 307 308 308 307 308 308 309 310 310 310 309 309 310 312 312 312 312 312 312 312 312 312 312 312 312 312 312 313 313 313 312 310 309 308 305 304 305 305 305 307 307 308 308 307 307 307 307 306 306 306 305 305 304 305 304 304 305 305 304 305 306 306 304 304 304 304 303 302 302 301 300 299 297 296 296 295 294 294 293 293 293 293
298 298 298 299 301 303 304 306 307 307 307 307 308 308 308 309 309 309 309 311 311 311 311 311 311 311 312 312 312 311 311 311 312 312 311 310 310 309 309 308 305 303 304 304 305 306 306 307 306 304 305 305 304 304 304 304 304 303 302 302 302 302 302 302 302 302 303 302 302 302 302 301 301 301 299 298 297 296 295 295 294 294 294 293 292 292 293 293
297 297 297 298 300 302 302 304 306 307 306 306 307 307 307 308 308 307 308 308 308 309 310 310 310 310 309 309 310 310 309 308 308 308 306 306 307 306 307 306 305 304 304 304 304 304 305 305 304 303 303 303 302 302 302 301 302 301 300 300 300 300 300 300 301 301 300 300 300 301 301 301 301 299 297 296 295 294 294 294 293 294 293 292 292 292 292 293
296 296 296 297 298 301 302 302 304 306 306 306 306 306 306 307 307 306 307 306 304 305 307 307 308 308 307 307 307 305 304 304 303 303 303 303 302 302 303 303 303 304 304 303 303 303 303 304 303 303 303 302 301 300 299 299 300 299 299 299 298 299 299 299 299 300 300 300 300 300 301 300 298 298 297 295 293 293 293 293 293 293 293 293 293 293 293 293
Wind_Speed
2 2 2 3 3 2 2 3 3 4 5 5 6 7 7 8 8 9 9 10 10 10 11 11 12 13 13 14 14 16 18 19 18 13 10 12 11 9 10 9 6 3 6 6 7 5 5 6 7 6 4 3 2 2 3 2 1 1 1 3 4 4 5 3 4 4 3 4 5 4 4 5 6 2 2 2 3 5 8 10 9 9 10 13 18 17 13 13
3 3 3 3 3 3 3 4 5 5 6 7 7 8 8 9 10 10 10 11 11 11 12 12 12 13 13 13 14 15 17 20 18 14 15 15 12 9 7 4 4 3 7 8 8 8 6 5 6 7 3 2 3 3 3 2 3 2 2 3 4 4 5 5 6 5 4 5 7 7 6 6 6 6 2 2 6 5 7 10 9 10 10 13 18 16 16 15
3 3 4 3 3 3 4 5 6 6 7 8 8 9 9 10 10 11 11 12 12 12 12 13 13 13 13 12 12 13 15 16 12 8 5 4 3 2 0 1 2 3 7 8 7 9 7 5 3 6 3 2 3 3 2 2 3 4 3 3 5 5 6 6 7 6 4 5 7 6 6 6 7 6 3 4 8 6 7 10 9 10 9 8 9 6 14 17
3 4 4 4 4 4 5 5 6 7 7 8 9 9 10 11 11 12 12 13 13 13 13 13 13 13 12 11 10 10 12 9 4 1 7 7 5 5 4 3 3 3 8 6 5 8 7 7 4 4 3 3 4 3 3 3 2 3 4 5 5 5 7 7 9 8 5 4 5 6 7 8 8 5 5 5 6 6 7 9 10 11 10 9 10 8 6 11
4 4 4 3 4 4 4 5 6 6 7 8 9 10 11 11 12 13 13 14 14 14 14 14 14 13 11 10 8 7 7 3 1 2 7 5 3 3 3 3 3 5 9 4 4 6 6 6 5 3 3 3 4 3 4 6 4 2 4 6 7 6 7 7 9 6 3 4 4 6 7 7 6 6 6 5 7 7 6 9 12 12 11 11 11 10 9 7
4 4 4 3 3 3 4 5 5 6 7 8 9 10 11 12 12 13 14 15 15 15 15 15 14 13 11 9 5 3 3 2 0 3 7 3 2 1 2 2 1 7 9 4 6 6 5 6 5 3 3 4 5 5 6 7 6 4 6 6 7 8 8 9 8 2 3 2 6 7 7 6 8 9 8 8 11 11 9 11 13 13 13 13 11 9 10 10
5 5 4 4 4 3 4 5 6 7 8 9 9 10 11 11 12 13 14 15 15 16 15 15 14 12 10 6 2 0 2 6 7 6 8 7 6 4 4 2 3 9 9 6 8 6 4 5 5 4 4 5 6 7 7 6 5 5 6 6 8 10 11 10 8 3 1 4 7 6 7 7 9 10 8 9 11 13 13 12 13 14 13 13 11 9 10 10
6 5 4 4 4 4 5 6 6 7 8 9 10 10 11 12 12 13 14 15 15 15 15 14 13 11 7 2 1 2 4 7 9 8 8 9 8 6 5 3 6 10 8 9 10 6 5 5 6 4 5 6 6 7 6 6 5 6 7 7 8 8 9 8 7 6 5 7 6 5 8 10 10 9 12 13 13 15 15 13 13 14 13 11 10 10 10 10
6 5 4 4 4 4 5 6 6 7 8 9 10 10 11 12 12 13 14 14 15 15 14 14 11 8 4 0 2 4 4 7 8 7 6 7 7 6 5 3 8 11 8 10 11 9 5 4 5 2 3 5 6 7 6 5 4 4 6 6 7 7 8 9 9 10 9 7 6 6 9 11 8 7 12 14 12 13 14 12 12 11 11 9 9 9 9 9
6 4 4 4 4 4 5 5 6 7 8 9 9 10 11 12 13 14 14 15 15 15 14 12 9 6 3 2 3 4 3 4 5 5 5 5 3 4 5 4 7 10 9 10 11 10 6 5 5 3 3 5 5 6 6 6 4 3 6 7 9 9 9 10 12 14 11 9 9 9 10 11 6 3 8 10 9 9 9 9 9 8 9 8 8 9 8 9
5 4 4 3 3 4 5 5 6 8 9 9 10 11 12 13 14 15 15 16 15 15 14 11 7 4 2 3 5 4 3 3 3 3 3 2 0 3 6 5 6 10 9 9 11 9 7 6 5 3 2 2 3 7 6 5 4 5 6 8 10 11 11 13 14 14 10 8 10 9 8 10 6 5 12 14 11 9 8 10 9 8 9 8 9 9 8 8
5 4 4 3 4 4 5 6 7 8 10 11 12 13 14 14 15 15 15 15 14 14 13 9 5 4 3 4 7 8 6 4 4 4 3 2 2 5 8 8 7 9 8 7 6 5 5 5 6 1 3 3 4 6 3 4 5 4 4 6 11 12 11 14 14 14 11 6 6 5 2 7 8 9 15 16 13 10 9 10 9 9 9 9 8 8 7 7
5 4 4 4 4 5 6 7 8 9 11 13 14 14 15 16 16 16 15 14 13 13 11 7 3 6 3 3 7 12 13 10 8 7 6 5 4 6 8 9 9 8 7 3 3 3 2 3 3 3 5 5 5 4 1 1 3 4 4 4 9 9 8 12 11 9 8 4 9 7 1 5 8 10 13 10 7 6 7 7 9 9 10 10 8 7 7 7
6 5 4 4 5 5 6 7 8 10 12 13 15 15 16 16 17 15 13 12 11 11 9 4 5 6 3 4 5 9 12 10 8 6 5 3 2 3 5 7 7 8 7 3 2 2 2 3 2 3 5 5 5 5 5 4 3 6 7 5 5 4 4 9 6 4 3 2 8 6 2 5 6 10 11 5 1 3 5 7 11 12 11 10 8 7 7 7
6 5 5 6 5 6 7 7 9 11 13 14 15 15 15 16 16 13 11 10 9 7 4 1 7 5 2 5 5 4 6 5 4 5 4 5 4 2 4 5 4 5 5 4 3 2 1 1 1 1 4 5 4 5 6 4 3 5 6 3 4 4 4 8 5 6 5 2 5 6 2 6 7 9 8 6 5 7 8 10 14 15 13 11 7 5 5 5
7 6 6 5 5 7 8 8 10 12 14 15 15 15 15 15 13 10 8 7 5 2 1 2 6 5 4 3 3 3 4 3 6 8 6 6 5 3 7 6 3 3 3 2 2 2 1 2 1 0 3 3 3 4 4 4 4 4 5 4 5 5 5 5 3 5 7 2 4 6 4 5 5 5 7 9 10 10 11 13 15 16 14 10 7 5 5 6
7 7 7 5 6 8 8 10 12 14 15 15 15 15 15 14 10 7 5 3 2 1 1 1 3 5 3 2 2 2 3 4 6 6 4 6 7 5 7 5 3 5 3 2 2 3 3 3 2 1 1 3 3 3 3 3 4 4 4 5 6 6 5 4 2 1 3 5 5 8 7 7 7 8 9 11 12 11 11 14 14 14 12 9 6 4 5 7
9 8 7 5 6 9 9 10 12 14 16 15 14 15 15 12 9 6 3 2 2 0 1 2 1 3 2 3 3 1 5 5 6 3 2 7 8 7 7 4 5 6 5 3 3 4 3 2 3 2 2 4 4 4 4 5 5 5 5 5 5 6 6 6 5 5 5 4 6 7 8 9 8 8 9 10 12 12 13 13 11 10 12 11 5 5 7 10
9 8 6 6 8 9 9 11 12 14 17 15 13 14 13 8 6 6 4 3 1 1 2 1 4 2 3 2 2 4 6 5 4 3 4 7 7 8 6 4 5 6 4 2 3 5 3 1 3 2 3 5 6 7 8 9 8 9 9 7 7 7 6 8 8 8 9 9 8 8 9 8 7 8 9 11 13 14 14 11 8 9 11 7 6 7 9 12
7 5 6 8 9 10 10 11 11 13 15 15 15 13 8 3 3 2 3 5 6 7 7 4 7 7 9 6 4 5 2 4 4 3 7 8 8 8 5 4 4 3 3 3 4 5 4 3 4 4 6 9 10 11 11 11 10 10 9 8 8 7 7 8 9 9 8 7 7 7 8 8 8 10 12 14 13 13 12 9 10 9 5 4 8 9 11 12
5 5 8 11 11 11 11 10 11 13 12 12 14 10 2 3 3 1 2 5 9 13 12 11 12 12 14 9 5 6 1 3 5 5 9 9 8 7 5 5 4 3 6 6 3 2 3 4 5 7 10 12 12 11 11 11 10 9 7 7 6 5 7 8 10 11 5 3 4 6 7 7 8 12 16 16 12 12 10 10 11 4 5 7 9 11 12 10
5 6 9 12 12 12 12 10 11 12 10 8 10 6 4 4 3 1 3 5 8 13 13 14 16 14 16 12 5 6 1 3 5 6 10 9 6 5 5 6 5 4 6 6 3 1 2 5 9 12 12 11 11 10 10 10 9 7 5 5 5 5 7 8 9 6 1 1 3 6 7 6 10 15 17 16 12 10 11 9 5 5 10 8 10 11 11 11
6 7 9 12 12 12 11 10 10 8 8 7 7 6 4 4 4 2 2 4 6 12 11 11 13 12 12 8 5 4 3 6 6 6 12 11 4 3 4 6 6 4 5 6 5 4 4 6 11 12 10 10 10 9 9 9 7 5 4 4 5 5 6 5 4 4 4 4 6 8 7 6 11 14 14 13 10 9 7 4 11 12 12 11 12 12 12 13
8 8 10 12 12 12 12 11 7 4 4 4 6 5 4 4 3 1 1 4 5 7 5 3 5 4 4 2 3 2 4 5 5 5 14 13 5 3 4 5 6 5 6 8 9 8 7 6 7 6 6 7 7 7 7 6 4 4 5 5 6 7 7 5 4 6 6 7 6 5 5 5 8 8 7 6 4 5 1 13 17 12 11 12 14 14 13 13
10 9 10 12 12 12 12 10 4 1 3 1 4 4 5 5 2 1 1 3 4 2 1 1 1 1 1 1 2 1 3 3 1 2 9 7 2 4 4 5 5 6 8 10 11 9 8 7 5 4 5 5 5 6 6 4 3 5 5 7 7 6 5 4 6 6 4 5 3 2 3 4 3 4 6 6 3 1 7 14 14 11 11 11 12 12 11 11
14 12 11 12 12 11 10 6 1 1 3 2 1 4 5 5 2 0 1 2 4 1 1 0 1 1 2 2 2 0 2 2 2 3 3 1 2 1 2 3 3 4 5 6 5 3 3 1 2 2 4 3 4 6 7 5 3 4 3 2 2 3 4 4 5 3 1 4 3 0 2 4 3 5 7 10 7 4 11 13 12 10 10 10 10 10 9 10
16 15 14 13 11 8 5 3 2 3 2 2 1 4 5 5 2 1 1 2 5 2 3 1 1 1 2 2 2 1 1 2 2 1 1 2 1 0 2 3 2 2 2 0 1 1 3 3 4 2 2 3 4 5 6 6 4 3 1 4 5 4 4 4 3 3 4 4 5 5 4 4 5 5 10 13 5 9 12 11 11 10 11 11 10 10 9 9
16 15 13 11 9 7 6 4 4 3 1 0 2 4 5 4 2 1 1 2 3 2 2 0 1 1 1 2 1 1 0 2 2 1 2 2 1 1 2 4 3 2 2 3 2 1 1 4 4 4 4 4 5 6 5 7 5 2 1 3 3 2 2 3 3 5 4 4 5 5 6 3 4 5 10 9 5 11 10 10 10 10 11 10 10 10 9 8
14 12 9 9 8 7 7 6 4 3 2 3 3 4 5 3 1 2 0 3 1 2 1 0 2 1 2 2 3 3 2 2 1 1 1 1 1 0 2 3 5 4 2 5 5 3 0 2 3 6 5 5 5 4 1 3 4 2 2 2 1 2 3 4 5 4 3 3 4 5 6 3 4 6 5 3 7 8 7 8 9 9 10 9 9 9 7 7
12 10 9 8 7 6 5 5 5 5 4 4 3 3 3 2 2 2 3 3 1 2 1 1 1 2 4 3 3 4 3 1 2 2 1 1 1 1 1 1 2 4 3 3 5 7 2 2 2 3 4 3 3 1 2 3 2 2 1 2 3 5 4 3 3 1 1 3 6 8 10 6 3 5 1 4 5 10 10 8 8 9 10 9 8 7 7 6
10 9 8 8 8 7 5 3 5 5 3 2 2 2 1 1 2 2 4 1 1 1 1 2 0 2 3 2 1 3 3 2 4 4 2 1 2 1 2 0 1 2 2 3 5 7 3 1 1 3 3 2 4 1 2 3 3 2 2 2 4 4 1 1 0 1 1 4 6 5 10 10 4 3 3 7 5 9 11 9 10 10 10 9 7 6 6 5
9 8 9 10 10 8 6 3 3 4 3 2 1 1 1 1 2 4 2 1 1 2 1 1 0 0 0 1 1 2 2 3 4 3 3 3 3 3 4 4 1 1 2 2 2 3 3 5 5 3 2 2 4 1 1 2 3 3 2 1 1 2 1 1 1 1 2 5 4 3 2 6 6 3 4 9 8 8 9 10 11 10 10 9 7 6 5 4
10 9 10 10 9 9 7 4 4 6 5 4 1 2 2 2 4 3 4 3 1 0 2 2 0 0 1 1 0 1 1 2 5 4 3 3 3 4 6 8 4 2 3 1 2 3 1 2 4 3 2 3 6 3 1 1 2 5 4 4 4 1 2 3 3 2 3 4 3 5 5 1 4 3 6 10 8 9 11 11 10 10 10 9 7 6 4 4
12 10 10 10 10 10 8 7 7 7 6 4 2 2 2 5 3 0 4 5 1 2 2 2 1 1 1 1 1 1 0 2 4 3 2 2 2 3 5 7 7 5 3 1 1 2 3 3 2 4 1 4 7 5 2 1 3 6 4 4 4 3 3 4 3 4 4 3 3 2 1 1 2 1 5 10 9 9 10 10 10 9 8 7 6 5 5 5
9 9 9 9 10 10 9 9 8 7 6 4 2 2 5 6 2 0 2 3 0 2 1 1 2 1 3 2 3 1 2 2 0 2 2 3 3 4 2 3 4 4 2 1 1 2 4 5 1 2 1 5 5 3 1 3 1 3 1 2 2 3 3 3 4 4 3 3 3 2 2 3 2 5 7 9 9 9 9 9 9 8 7 6 5 5 5 4
5 5 6 7 9 10 11 10 7 6 4 3 3 5 6 4 2 1 1 2 2 1 1 2 1 0 4 2 4 5 2 1 2 2 1 3 4 6 5 3 2 5 5 3 1 0 3 3 1 2 1 2 1 2 1 1 0 1 2 1 4 2 1 2 5 4 3 4 5 4 4 3 2 4 5 8 9 9 8 8 8 7 6 5 4 4 4 4
3 3 4 7 10 11 11 10 7 5 3 3 5 6 3 3 4 3 1 1 2 1 1 2 2 3 3 1 3 4 2 1 1 1 1 2 3 4 5 4 2 3 4 2 2 1 1 2 2 3 1 1 2 3 3 2 1 2 1 2 2 2 1 1 3 3 4 5 5 5 6 5 3 2 3 7 8 8 6 7 7 6 6 5 4 4 4 4
1 2 4 8 12 12 11 11 9 5 2 3 7 8 4 3 5 3 0 1 2 1 1 4 3 3 4 4 4 3 3 2 3 3 1 2 2 1 3 2 3 3 1 3 1 1 1 2 4 2 1 1 1 3 3 4 0 3 2 1 1 0 2 1 2 2 4 6 4 5 8 7 5 3 5 7 7 8 7 6 6 6 5 5 4 4 4 4
3 1 3 4 8 10 12 13 8 4 2 4 7 8 4 4 6 6 3 1 1 2 3 5 4 3 5 5 5 3 4 4 4 3 2 3 3 2 1 1 3 3 5 6 2 1 2 1 2 2 2 2 1 2 1 3 2 3 2 1 1 3 3 2 2 2 4 6 4 5 6 4 2 1 5 8 7 8 6 5 5 5 5 5 4 4 4 3
3 0 1 2 6 11 15 13 7 3 4 5 6 5 3 3 6 8 7 5 3 3 4 6 5 5 6 6 7 6 4 5 5 4 3 2 3 1 4 4 2 2 5 5 1 1 1 2 3 2 0 2 1 2 3 1 1 2 2 2 2 1 1 1 2 2 3 4 4 5 6 3 1 3 4 8 6 6 6 6 5 4 5 4 4 4 3 2
2 0 1 5 10 16 17 9 4 4 4 5 6 6 6 4 3 5 7 7 6 5 4 5 6 6 5 6 8 7 5 5 6 5 4 5 5 2 2 3 2 2 3 2 1 1 0 2 2 3 3 1 2 1 3 2 1 2 1 2 2 1 1 2 5 4 3 3 3 4 6 3 1 2 3 6 5 5 6 6 5 5 5 5 4 3 2 1
1 1 3 9 18 21 14 4 4 5 4 6 6 5 6 5 4 5 6 6 6 5 4 5 7 7 6 7 6 5 5 4 5 6 4 4 5 2 1 2 2 2 1 2 1 1 2 2 1 5 5 5 6 2 3 3 3 1 1 1 3 3 1 3 5 3 2 3 1 2 6 2 0 2 2 4 4 4 4 4 5 4 4 5 4 3 2 2
2 2 4 12 23 20 8 3 5 5 6 7 6 5 6 5 4 5 6 6 6 6 5 5 7 8 8 7 6 7 6 4 5 7 4 2 2 2 1 2 1 0 0 2 1 1 3 2 2 4 5 7 8 3 5 5 4 2 1 1 0 2 3 3 4 1 1 3 3 4 6 3 1 2 0 3 3 3 2 2 5 4 3 4 4 3 3 3
2 2 2 11 22 18 7 5 7 7 8 8 7 7 6 5 5 6 7 8 7 5 6 6 6 7 8 7 7 7 7 4 5 6 4 2 1 3 2 2 1 0 0 0 1 1 0 0 1 1 3 5 4 1 4 5 3 1 1 1 1 2 3 2 1 1 2 6 8 6 4 2 1 2 3 3 3 2 3 3 4 4 4 4 4 4 4 5
2 3 1 8 15 13 6 4 4 5 8 9 9 9 8 6 7 8 8 8 7 6 5 5 4 4 5 6 5 6 7 5 3 3 2 1 0 2 4 5 3 1 1 2 2 2 1 1 2 2 4 5 4 2 1 2 2 0 2 3 2 4 4 2 1 3 4 5 6 4 4 4 3 4 6 5 5 5 4 4 4 4 5 5 4 4 4 4
2 3 1 4 7 8 5 3 3 3 5 7 7 8 10 9 7 7 9 9 9 9 6 3 2 2 3 6 6 5 7 6 5 3 2 2 0 1 2 4 5 4 3 3 3 2 1 1 2 4 5 6 6 6 3 0 1 3 4 5 6 6 6 4 3 5 4 4 5 6 7 8 8 9 9 4 2 5 6 5 5 5 4 5 4 3 3 2
2 3 3 3 3 6 5 5 7 5 4 5 5 5 9 11 8 7 9 7 7 8 6 4 4 4 4 6 6 5 7 7 6 6 4 3 2 1 1 3 5 3 1 1 1 2 2 2 5 7 8 8 9 11 10 7 5 5 6 8 9 9 7 7 7 5 3 4 7 9 10 10 9 9 10 10 5 4 6 5 5 5 5 5 4 3 3 3
3 2 2 1 2 5 7 8 10 9 8 7 5 4 8 10 9 7 6 5 5 5 4 4 8 9 8 7 5 4 5 6 6 6 6 4 3 2 1 2 2 1 1 0 1 2 3 3 6 5 6 8 8 8 7 6 5 5 7 9 11 12 12 11 9 6 3 6 9 9 10 12 10 10 12 10 3 4 5 4 4 4 4 4 3 2 2 2
3 2 3 3 2 3 5 7 9 11 12 9 5 6 8 8 8 7 3 3 3 4 4 6 7 7 8 9 7 4 4 4 4 3 2 1 2 3 2 1 1 1 1 1 1 1 1 3 4 3 3 6 7 6 5 5 6 7 9 10 12 15 15 11 8 8 8 9 10 10 13 14 12 10 8 3 3 4 4 3 3 4 5 4 3 2 1 2
2 1 1 2 2 2 2 3 7 9 10 9 8 9 7 7 9 6 1 2 3 4 6 8 6 1 1 3 5 5 4 3 3 2 2 3 2 2 1 0 1 1 1 1 1 1 1 2 1 1 1 5 7 5 2 3 6 8 11 14 16 16 15 12 10 10 9 10 12 13 13 12 8 3 1 3 4 4 3 3 2 3 5 5 3 2 2 2
5 2 1 2 3 2 1 1 5 6 7 8 9 9 7 8 10 7 1 1 1 1 2 4 3 3 4 3 2 2 2 6 6 4 3 3 2 2 1 1 3 2 1 0 0 1 1 1 2 3 1 7 8 3 1 4 6 8 13 19 20 15 12 11 9 8 9 10 11 10 9 8 3 2 3 3 4 4 3 3 3 2 3 3 1 4 4 2
7 2 1 2 3 3 3 2 4 5 6 6 7 8 8 7 7 6 4 1 3 2 1 4 5 4 3 1 1 2 4 5 5 4 4 3 2 2 1 1 2 2 2 1 1 0 1 1 1 1 3 7 7 1 3 1 3 7 12 15 15 13 11 10 9 10 11 10 8 7 6 5 3 4 2 2 3 2 1 2 2 3 2 2 5 5 4 3
Wind_Direction
300 305 307 316 322 324 325 322 321 324 328 331 332 332 332 332 331 332 332 330 331 331 332 331 329 329 330 332 330 328 324 318 316 302 266 272 274 275 287 280 284 265 193 166 156 182 182 200 206 183 185 148 192 205 134 162 171 195 204 218 242 242 252 326 328 324 2 336 332 320 321 323 318 327 84 24 258 245 264 264 262 255 244 242 246 241 217 206
306 309 314 319 323 325 327 325 324 328 329 329 329 330 329 328 328 327 327 326 326 327 327 328 327 327 331 334 334 332 325 317 310 286 268 276 273 267 278 272 275 210 176 173 178 203 204 207 192 179 199 174 175 153 144 170 157 208 233 236 243 247 272 317 310 318 354 321 316 315 319 328 324 327 358 281 272 270 277 277 277 275 264 253 248 225 196 196
312 319 326 328 331 331 332 329 327 330 328 328 328 328 327 325 324 323 323 323 323 324 324 323 323 326 331 335 339 338 327 317 307 286 265 258 217 187 131 38 308 191 174 179 194 220 242 284 214 181 217 234 194 153 162 170 157 209 218 242 247 257 282 298 304 316 320 306 307 307 332 330 308 309 297 277 282 271 266 273 278 279 275 277 284 226 189 196
318 321 324 331 337 337 336 331 329 333 331 329 329 327 325 323 322 321 320 320 320 320 320 320 320 323 329 337 342 341 330 311 300 54 118 123 134 119 89 57 17 169 171 182 226 238 254 294 265 204 237 255 234 190 184 179 162 204 197 231 255 281 298 300 306 311 315 329 326 314 322 307 293 292 280 284 285 263 250 258 265 274 284 297 317 320 246 210
316 315 317 327 335 335 331 327 330 330 328 327 325 324 323 321 321 319 318 318 319 317 318 317 317 321 326 337 338 339 337 305 358 123 146 135 137 114 59 35 9 172 173 196 246 241 242 258 251 233 240 257 265 234 214 200 184 243 236 243 259 277 284 280 291 313 12 354 319 295 292 293 300 294 276 267 263 256 249 257 266 274 286 290 294 304 298 266
304 303 310 318 321 324 326 327 328 326 323 322 321 323 322 321 320 318 318 318 317 317 317 316 317 320 324 337 342 346 328 265 334 173 183 210 246 297 341 352 320 178 176 222 234 223 231 236 229 229 234 242 256 250 247 221 191 226 251 254 262 270 274 280 293 334 86 320 287 278 284 300 300 287 270 254 256 260 259 262 270 270 271 275 278 283 283 277
298 301 306 316 320 324 330 327 325 324 322 321 321 322 321 321 320 318 318 317 316 315 314 315 316 317 321 335 344 267 240 258 277 249 220 244 259 280 285 274 210 184 183 226 224 214 221 229 226 228 246 246 251 249 259 259 223 226 251 268 276 278 277 280 291 291 171 267 269 274 290 285 278 282 276 257 258 267 267 264 269 273 273 272 271 266 264 263
296 299 306 317 323 326 329 325 324 324 322 322 321 321 321 320 318 316 315 313 312 311 311 312 312 315 322 338 273 262 232 247 269 258 234 249 264 269 259 235 201 187 192 222 219 221 224 233 243 248 261 253 262 271 287 300 268 248 258 270 271 271 280 287 292 284 267 266 260 260 274 266 261 276 280 270 263 265 266 265 263 266 271 267 262 259 256 252
293 295 304 313 322 326 326 325 327 326 324 324 321 320 322 320 318 316 314 312 311 310 311 310 308 305 302 248 267 277 242 239 253 253 253 267 273 253 235 221 201 188 201 227 227 239 232 235 253 272 304 282 287 296 304 299 265 259 279 298 301 299 304 304 296 283 271 265 251 240 257 261 261 276 277 267 257 256 256 256 255 258 261 259 261 261 259 256
295 299 304 309 319 321 322 326 328 328 329 326 322 322 323 322 321 319 318 316 313 313 312 312 307 286 256 206 234 259 238 230 238 251 273 286 279 223 198 201 207 195 210 230 230 242 242 256 282 33 2 308 299 295 288 272 272 333 325 317 310 302 294 283 274 271 264 259 248 239 255 263 260 266 273 264 252 255 261 264 262 258 257 254 258 263 265 265
299 307 307 305 312 317 324 327 329 332 333 330 325 324 324 324 322 321 319 317 315 314 314 316 302 254 209 205 235 250 215 208 216 236 281 300 253 187 182 186 209 206 220 237 232 246 268 296 351 36 335 348 320 287 281 293 322 359 343 318 296 286 280 270 264 262 256 246 233 224 252 273 270 239 253 263 265 265 272 278 274 266 261 256 257 261 262 260
296 304 305 305 313 319 325 325 329 334 335 332 327 326 325 324 322 320 317 314 313 310 311 316 286 208 198 233 239 239 226 216 225 246 281 279 225 197 189 190 196 207 232 255 246 261 291 343 27 347 273 342 322 289 283 337 348 349 342 306 284 280 272 265 259 253 248 225 172 160 247 275 261 240 245 254 259 261 257 264 269 265 265 264 266 270 271 265
293 297 298 303 309 315 321 324 329 334 337 333 329 327 324 323 322 319 315 313 311 307 310 314 246 185 198 262 235 232 233 232 240 263 275 261 238 210 206 205 193 201 227 269 340 5 341 5 11 286 287 296 293 304 272 290 314 280 261 255 277 287 274 267 259 238 237 189 125 117 171 248 255 258 260 257 249 266 270 276 280 271 270 273 275 277 277 280
285 283 287 291 297 308 314 322 330 336 338 334 329 325 322 321 320 318 316 313 311 307 309 294 188 164 190 265 248 228 225 234 244 256 256 225 185 192 213 216 202 208 221 244 319 335 345 13 7 297 287 266 269 312 303 272 264 265 261 241 252 276 271 274 270 155 164 181 135 126 218 246 266 273 278 282 233 300 296 288 283 277 276 275 276 276 269 270
271 273 279 284 298 313 314 325 333 337 337 334 328 321 318 317 316 316 315 314 316 310 315 181 171 160 272 264 247 218 207 224 199 185 205 172 164 181 167 179 198 212 221 229 251 273 325 45 94 277 266 240 241 280 289 276 257 253 265 260 228 235 257 277 276 159 169 241 157 135 210 244 247 265 293 328 333 315 300 285 283 281 281 284 291 300 300 302
265 270 277 286 313 320 321 333 336 335 335 332 326 320 316 314 312 312 315 319 323 306 105 131 176 183 300 263 193 182 183 188 177 190 210 178 174 151 131 140 166 183 204 220 225 241 220 160 156 294 267 245 221 237 265 276 264 235 236 256 248 241 252 274 280 181 169 128 184 192 225 251 247 275 306 311 299 292 285 278 276 277 281 289 297 314 337 360
266 271 277 291 318 319 324 338 340 336 334 333 328 320 315 312 304 301 313 333 347 120 113 342 197 200 264 246 221 222 152 155 175 197 221 181 171 149 141 143 152 157 154 157 170 175 168 163 155 111 216 242 245 248 266 257 248 241 233 246 249 251 272 285 310 218 150 133 210 221 224 245 252 264 273 272 271 268 264 265 267 276 285 286 296 340 18 46
269 273 279 293 308 313 323 339 342 338 336 335 330 320 313 306 287 279 288 317 348 349 293 324 251 223 218 209 234 151 110 135 158 164 175 168 164 161 169 165 145 154 154 157 178 168 170 181 179 202 214 221 239 235 234 235 237 261 266 273 277 278 295 294 291 315 317 266 253 251 245 252 260 271 277 274 275 270 263 265 274 287 287 289 332 41 59 67
270 274 286 301 304 306 322 339 339 340 339 336 335 324 312 299 272 257 240 254 277 233 294 220 191 237 301 270 194 117 100 125 144 148 161 159 161 172 190 188 157 171 170 154 194 180 168 173 174 208 225 218 224 217 223 235 243 259 267 274 282 282 285 284 281 289 294 282 274 274 274 285 296 295 290 278 274 269 269 279 288 284 285 307 46 72 68 68
276 288 305 311 307 310 324 337 337 341 343 342 345 331 311 311 285 251 215 233 238 258 287 265 224 252 293 303 120 123 123 163 165 160 169 163 159 171 189 195 170 195 216 173 176 169 157 188 198 199 216 228 234 233 241 248 250 260 268 269 271 279 281 283 286 283 285 281 275 281 291 302 306 294 280 270 269 273 279 283 272 275 306 46 78 79 71 71
278 305 314 311 311 318 323 334 339 341 346 347 344 332 338 28 325 324 331 268 251 257 266 266 260 261 273 276 145 141 147 205 196 164 172 172 161 171 182 186 173 192 226 199 148 92 152 203 219 212 220 233 243 252 264 272 275 277 283 287 286 285 280 281 283 285 296 292 281 296 297 296 295 283 275 274 278 280 275 262 261 282 65 77 77 73 72 70
272 297 304 302 308 316 318 334 342 344 357 357 344 350 58 28 334 354 317 282 274 268 264 263 261 259 262 260 173 142 147 232 213 162 168 175 172 190 174 176 192 198 213 192 122 83 203 226 234 228 229 239 250 260 269 273 277 280 287 296 292 278 281 280 274 281 10 78 292 299 290 285 280 272 272 276 277 271 262 261 286 64 77 68 68 70 66 61
270 289 296 295 303 313 320 338 346 354 7 7 11 28 34 345 325 353 282 270 279 262 252 250 251 253 251 239 144 136 235 232 235 190 173 172 169 214 189 185 212 224 209 186 174 200 206 220 230 228 230 240 251 257 262 267 265 253 256 274 272 266 272 272 279 329 354 312 285 286 284 278 273 269 272 271 258 257 262 61 64 71 74 65 67 64 56 56
265 282 291 295 301 310 320 334 348 3 350 11 49 37 2 330 319 356 269 269 269 246 238 245 252 268 264 236 115 166 241 228 252 200 174 176 170 185 213 206 210 229 222 207 211 224 233 245 247 230 225 240 253 260 259 263 267 252 234 238 253 258 258 263 312 339 328 301 284 294 295 260 257 267 286 284 240 252 311 84 80 76 79 74 71 64 59 57
252 265 282 288 290 299 313 324 346 20 327 62 71 14 356 355 348 13 323 271 254 244 308 31 106 45 28 66 116 213 260 228 323 92 160 186 200 171 208 211 211 231 227 225 228 235 247 258 262 230 222 241 249 257 253 242 266 270 243 235 249 269 282 300 335 345 332 299 284 25 339 255 257 300 306 294 249 297 62 83 83 77 74 69 69 68 66 63
244 254 278 281 278 292 310 313 240 335 344 105 67 345 349 359 13 186 320 280 262 228 96 183 155 181 163 132 144 209 288 222 42 57 135 306 313 203 233 195 192 243 234 238 246 253 241 187 84 175 204 220 228 255 257 232 246 263 252 268 293 331 337 332 343 342 289 268 256 311 301 257 272 286 274 264 241 104 76 78 78 74 70 64 65 63 61 64
246 256 273 270 265 281 295 295 301 317 324 143 326 333 343 360 12 251 245 277 272 146 111 297 302 160 149 138 181 201 257 162 99 67 99 332 300 39 274 183 161 234 219 56 346 272 204 146 74 80 188 193 205 249 241 198 203 247 283 20 16 11 348 331 328 271 247 273 270 238 226 255 269 247 246 251 223 99 86 83 81 80 77 73 71 63 57 54
253 260 267 259 251 255 249 272 315 315 249 196 328 327 345 1 357 297 274 270 281 106 108 268 102 120 118 117 220 247 122 155 170 66 38 321 252 105 244 237 268 266 161 151 193 300 156 157 146 151 173 200 209 234 220 180 183 219 91 55 35 17 323 286 264 253 264 300 283 214 185 238 275 247 241 236 132 96 97 96 90 85 80 77 76 71 64 54
254 254 253 246 242 239 237 259 282 265 270 306 315 332 355 1 32 56 216 251 297 71 53 116 119 140 143 146 216 225 185 181 225 57 76 246 231 19 242 248 307 310 203 183 207 261 43 157 185 170 178 211 213 233 232 158 179 187 106 65 358 242 238 248 243 256 291 287 263 208 176 200 280 272 250 166 116 114 116 103 93 85 79 72 68 70 65 60
244 242 239 232 219 211 217 239 247 249 271 287 311 351 10 20 61 79 222 239 5 41 79 130 99 151 176 194 202 197 196 164 104 122 168 191 130 312 261 173 342 320 280 239 247 254 234 58 344 212 209 207 146 101 35 72 128 153 81 7 306 257 227 220 224 236 322 269 253 221 193 180 297 300 357 63 118 139 131 118 110 97 89 80 67 61 56 52
236 238 224 200 184 177 176 209 232 235 243 265 324 348 359 48 79 193 222 215 28 334 144 130 111 176 206 239 166 183 204 158 138 153 184 126 124 222 282 226 52 355 307 294 269 253 215 130 254 227 241 198 115 80 1 50 70 89 74 21 337 299 211 134 162 99 140 255 274 244 187 177 213 279 62 46 57 123 132 132 123 108 97 92 79 69 60 51
225 218 196 182 177 175 172 179 199 192 171 137 34 340 32 45 211 214 222 70 87 229 175 114 43 169 325 354 119 167 181 157 163 188 198 175 176 193 202 207 161 48 263 244 280 268 200 194 198 188 260 196 142 81 352 30 75 112 126 116 3 310 279 164 203 163 208 235 276 2 107 178 223 278 62 64 49 72 101 110 112 108 101 95 89 84 75 63
206 200 190 184 181 181 181 166 150 150 138 125 112 34 70 208 229 200 188 208 232 121 88 80 39 261 35 12 126 98 47 175 174 199 224 180 194 213 200 207 208 223 250 256 338 312 252 199 165 154 300 189 163 160 184 248 160 157 166 159 163 229 271 256 239 235 245 242 277 8 24 282 239 296 60 82 73 65 79 88 94 100 100 98 100 97 90 76
198 197 194 191 189 189 184 162 141 136 129 127 117 77 159 220 248 121 199 219 227 77 69 39 337 234 213 287 299 87 104 236 170 166 213 168 207 245 216 217 215 205 214 264 285 227 245 285 175 160 238 173 177 194 189 98 162 189 195 163 175 198 220 247 252 246 253 271 297 342 31 261 219 156 92 95 91 81 84 88 90 92 94 100 102 96 83 67
202 203 203 201 200 198 186 173 161 144 128 121 127 174 208 224 239 43 243 257 268 101 57 331 46 10 294 298 304 294 158 208 67 105 216 225 251 264 245 245 223 180 149 212 239 174 219 257 203 121 202 160 179 240 19 58 145 218 169 97 217 216 199 249 263 247 254 292 285 233 224 264 84 92 97 98 94 90 92 93 94 95 97 98 93 87 83 75
221 226 231 225 218 208 195 187 180 160 139 132 183 215 220 230 227 203 297 313 294 98 87 280 105 307 285 282 272 268 169 136 359 43 254 260 269 259 247 270 240 180 167 183 249 243 230 249 78 49 320 157 169 328 42 107 203 37 61 162 237 231 158 261 278 268 261 272 261 239 256 264 107 93 100 102 96 96 98 97 101 104 105 104 101 104 108 108
245 269 257 243 234 218 201 197 186 172 167 163 209 230 224 218 235 250 300 3 306 31 88 261 185 175 244 251 245 241 142 84 263 140 239 254 258 258 240 252 283 203 190 191 261 261 269 277 221 190 234 282 323 358 345 272 140 108 178 228 280 338 23 234 262 267 252 257 255 245 260 258 225 224 143 117 104 106 114 113 117 120 116 114 111 112 110 104
33 327 280 254 243 224 200 192 179 164 175 197 229 244 243 215 231 250 138 117 290 305 189 232 203 177 229 247 262 241 146 169 191 161 191 224 218 240 222 243 5 2 4 71 78 290 14 287 249 199 171 228 3 31 344 289 125 123 194 223 91 294 294 249 227 233 240 252 253 242 254 254 241 222 145 133 122 122 129 125 125 128 126 125 121 117 109 96
85 39 296 254 234 217 193 182 162 138 209 219 229 238 236 235 240 245 241 208 229 216 219 238 224 224 248 249 269 263 176 183 195 183 185 201 217 227 213 23 39 14 27 67 99 324 27 247 270 11 69 128 73 82 188 268 328 56 32 336 170 191 215 222 231 225 232 250 256 248 254 253 273 330 121 132 134 134 137 129 127 128 123 124 122 120 113 98
88 64 273 153 176 184 175 167 153 156 216 226 230 232 228 242 238 231 228 220 206 208 229 240 223 227 249 257 268 265 220 209 222 223 210 219 257 332 36 28 50 45 36 59 102 27 39 232 246 317 50 104 73 192 166 213 316 52 19 279 230 210 222 236 261 233 214 245 255 254 256 242 309 353 105 126 130 133 135 137 143 142 130 123 119 120 111 89
98 319 217 158 160 161 152 147 170 188 209 237 239 236 233 237 234 222 216 211 216 226 233 244 242 241 248 253 258 256 250 251 248 247 237 229 243 263 23 356 10 48 40 60 99 74 340 253 258 280 267 186 197 178 97 60 56 90 82 258 266 308 326 276 262 234 208 243 244 250 263 251 277 333 85 112 122 123 129 143 152 150 139 132 127 125 126 116
193 227 164 156 160 158 148 149 204 193 216 235 236 234 226 227 231 221 210 208 219 225 223 239 243 244 246 246 249 251 254 257 246 247 245 227 229 218 254 294 351 21 69 119 129 64 87 100 255 269 265 255 257 277 40 348 292 238 192 264 290 291 273 261 265 263 256 270 285 252 256 249 107 310 57 96 111 97 99 136 144 146 136 129 139 144 160 200
219 195 140 156 167 170 169 202 199 200 226 237 248 243 223 224 230 219 207 202 210 212 212 225 227 229 237 237 239 245 244 238 233 236 246 255 227 113 142 240 240 357 92 139 193 45 79 100 242 262 278 279 276 302 29 8 333 284 286 42 328 257 258 254 250 262 279 264 273 260 250 247 274 273 21 92 96 67 34 136 138 145 143 139 161 179 196 215
231 213 137 165 179 188 208 218 205 213 224 231 246 239 229 234 227 220 212 202 200 205 212 221 221 222 229 229 231 234 228 232 243 233 228 251 225 94 46 326 331 126 330 204 208 200 148 175 165 258 283 285 282 329 24 13 24 45 329 6 169 243 279 287 227 184 209 231 235 241 249 242 188 196 198 172 158 179 223 187 152 160 169 166 183 202 212 216
226 236 162 165 188 204 227 233 230 234 223 223 232 233 236 240 225 220 221 214 207 206 215 220 209 212 223 222 231 236 226 229 250 225 183 209 312 56 17 352 360 56 52 39 69 117 194 209 137 171 236 246 251 236 126 80 68 84 268 270 254 240 249 277 288 245 244 238 232 245 272 267 252 250 237 207 183 193 201 179 171 179 177 177 189 205 204 195
215 227 171 145 194 222 244 266 266 260 232 221 226 230 230 236 236 217 211 222 225 217 224 232 179 174 219 216 223 242 236 226 225 221 172 149 122 38 27 21 34 55 65 48 42 69 122 236 209 209 232 246 262 274 278 305 256 259 272 275 265 252 244 246 250 246 268 299 279 267 272 274 280 282 280 278 197 183 179 177 184 181 171 171 178 185 179 177
234 231 201 163 198 218 227 239 230 232 253 245 235 231 225 230 238 215 196 207 221 213 224 244 218 209 217 212 217 233 235 230 228 235 226 186 134 69 72 69 64 57 47 41 35 98 119 227 227 219 236 248 255 269 282 290 276 263 275 276 271 270 257 240 241 251 309 311 273 268 276 279 280 282 292 309 310 180 166 170 173 164 162 167 167 179 199 220
231 255 263 266 238 213 212 217 216 224 246 256 261 270 250 236 232 223 199 192 209 206 206 229 224 221 221 220 219 224 230 233 230 231 227 205 156 125 96 53 75 117 129 132 197 126 128 233 237 222 240 252 257 270 282 292 298 290 278 274 274 271 260 248 248 245 236 250 258 269 277 276 277 281 289 302 311 143 142 140 139 139 139 137 138 163 223 253
237 275 286 300 288 230 218 204 198 214 235 244 253 261 259 252 243 237 192 158 208 218 213 228 226 219 229 231 221 217 229 226 221 227 213 150 131 145 150 21 33 178 145 145 227 168 133 244 248 228 256 270 272 285 309 319 307 291 277 271 268 265 264 267 267 254 245 256 267 274 275 274 279 287 294 311 107 119 121 121 123 115 99 82 65 45 354 341
270 320 278 294 284 254 279 210 186 201 226 232 237 243 245 251 251 249 162 140 204 206 212 231 234 199 337 272 225 216 214 161 148 170 120 111 125 137 146 125 120 147 118 112 277 290 233 242 260 73 341 283 268 267 295 291 276 277 278 270 262 262 267 271 270 266 266 268 267 267 269 272 278 299 34 107 98 86 90 94 83 94 94 76 39 332 299 296
262 341 20 312 284 216 191 218 191 199 217 217 227 237 233 234 241 247 285 86 153 169 181 190 172 90 44 5 317 228 153 115 120 123 99 104 120 97 67 103 120 121 128 116 341 314 279 299 354 30 312 270 273 276 229 257 272 274 269 262 258 258 260 258 257 256 254 257 261 263 262 257 251 97 107 103 74 53 57 59 32 22 74 88 305 280 277 273
242 283 278 283 297 245 195 189 195 207 221 217 223 231 230 236 243 240 236 118 69 35 88 117 119 109 104 110 87 83 91 97 101 90 74 68 67 82 139 202 179 168 177 168 133 183 171 134 326 297 256 264 277 4 107 61 325 278 258 253 253 253 252 251 253 250 246 246 250 254 247 222 164 127 141 123 82 49 14 45 11 327 311 255 247 251 257 264